Tracking 28790 objects as of 19-Apr-2024
HD Live streaming from Space Station
objects crossing your sky now

COSMOS 2251 DEB

Track COSMOS 2251 DEB now!
10-day predictions


NORAD ID: 37312
Int'l Code: 1993-036BKC
Perigee: 745.1 km
Apogee: 771.7 km
Inclination: 74.0 °
Period: 99.8 minutes
Semi major axis: 7129 km
RCS: 0.0199 m2 (small)
Launch date: June 16, 1993
Source: Commonwealth of Independent States (former USSR) (CIS)
Launch site: PLESETSK MISSILE AND SPACE COMPLEX (PKMTR)

Note: This is SATELLITE DEBRIS
Your satellite tracking list
Your tracking list is empty




NASA's NSSDC Master Catalog

Two Line Element Set (TLE):
1 37312U 93036BKC 24109.71838486  .00005196  00000-0  15810-2 0  9996
2 37312  74.0326 246.6768 0018633 138.2023 222.0561 14.42199456774572
Source of the keplerian elements: AFSPC